SBONWEB Weather Reports


Display with metric or nautical units.
time (UTC)temp
F
wind
direction
speed
MPH
gust
MPH
rain 1hr
in
rain 24hr
in
rain mn
in
humidity
%
barometer
mb
20230130103603 41 273 3.0 8.0 0.00 0.00 0.00 56 1018.4
20230130102704 41 272 3.0 7.0 0.00 0.00 0.00 56 1018.6
20230130101803 41 263 3.0 7.0 0.00 0.00 0.00 58 1018.7
20230130100904 41 250 3.0 8.0 0.00 0.00 0.00 57 1018.8
20230130100004 41 275 3.0 7.0 0.00 0.00 0.00 58 1018.9
20230130095615 40 240 2.0 7.0 0.00 0.00 0.00 57 1018.9
20230130094717 40 130 1.0 5.0 0.00 0.00 0.00 62 1018.9
20230130093604 39 36 1.0 3.0 0.00 0.00 0.00 65 1019.2
20230130092704 39 41 1.0 2.0 0.00 0.00 0.00 65 1019.3
20230130092014 38 328 0.0 2.0 0.00 0.00 0.00 67 1019.2
20230130090904 36 267 1.0 2.0 0.00 0.00 0.00 69 1019.3
20230130090004 36 350 1.0 3.0 0.00 0.00 0.00 72 1019.6
20230130085403 36 5 2.0 3.0 0.00 0.00 0.00 72 1019.6
20230130084504 36 26 0.0 3.0 0.00 0.00 0.00 70 1019.3
20230130083604 36 11 0.0 1.0 0.00 0.00 0.00 70 1019.3
20230130082913 35 11 1.0 1.0 0.00 0.00 0.00 72 1019.4
20230130082015 34 352 1.0 2.0 0.00 0.00 0.00 72 1019.3
20230130080904 33 7 1.0 3.0 0.00 0.00 0.00 75 1019.6
20230130080004 32 329 1.0 4.0 0.00 0.00 0.00 76 1019.6
20230130075403 32 313 1.0 4.0 0.00 0.00 0.00 78 1019.6
20230130074506 31 352 2.0 3.0 0.00 0.00 0.00 79 1019.7
20230130073604 31 350 0.0 3.0 0.00 0.00 0.00 79 1019.4
20230130072704 32 290 1.0 2.0 0.00 0.00 0.00 79 1019.0
20230130071803 32 294 1.0 3.0 0.00 0.00 0.00 79 1019.3
20230130070904 32 324 2.0 3.0 0.00 0.00 0.00 79 1019.6
20230130070004 31 360 1.0 4.0 0.00 0.00 0.00 80 1019.6
20230130065404 31 1 1.0 4.0 0.00 0.00 0.00 80 1019.5
20230130064504 31 321 2.0 4.0 0.00 0.00 0.00 81 1019.4
20230130063603 31 324 2.0 5.0 0.00 0.00 0.00 82 1019.6
20230130062914 30 309 0.0 4.0 0.00 0.00 0.00 83 1019.6
20230130061803 30 293 1.0 2.0 0.00 0.00 0.00 82 1019.7
20230130060903 30 296 2.0 3.0 0.00 0.00 0.00 82 1019.6
20230130060004 30 308 1.0 5.0 0.00 0.00 0.00 83 1019.8
20230130055403 29 309 1.0 4.0 0.00 0.00 0.00 83 1019.7
20230130054504 29 357 0.0 2.0 0.00 0.00 0.00 83 1019.6
20230130053604 29 350 1.0 1.0 0.00 0.00 0.00 83 1019.8
20230130052704 29 350 0.0 2.0 0.00 0.00 0.00 83 1019.9
20230130051805 29 0 0.0 0.0 0.00 0.00 0.00 84 1020.0
20230130050903 28 303 0.0 1.0 0.00 0.00 0.00 85 1020.1
20230130050003 28 0 0.0 0.0 0.00 0.00 0.00 85 1020.1
20230130045403 28 0 0.0 0.0 0.00 0.00 0.00 85 1020.1
20230130044504 28 302 0.0 1.0 0.00 0.00 0.00 84 1020.0
20230130043603 28 0 0.0 0.0 0.00 0.00 0.00 84 1019.9
20230130042703 28 0 0.0 0.0 0.00 0.00 0.00 84 1020.0
20230130041803 28 0 0.0 0.0 0.00 0.00 0.00 84 1020.1
20230130041115 28 302 1.0 1.0 0.00 0.00 0.00 83 1020.1
20230130040003 28 298 0.0 2.0 0.00 0.00 0.00 84 1020.3
20230130035403 28 298 1.0 1.0 0.00 0.00 0.00 83 1020.3
20230130034503 29 298 1.0 2.0 0.00 0.00 0.00 83 1020.5
20230130033603 29 298 1.0 2.0 0.00 0.00 0.00 83 1020.6
20230130032703 29 297 0.0 2.0 0.00 0.00 0.00 83 1020.7
20230130031804 29 297 1.0 2.0 0.00 0.00 0.00 83 1020.8
20230130030904 29 296 0.0 2.0 0.00 0.00 0.00 83 1020.9
20230130030003 29 296 1.0 1.0 0.00 0.00 0.00 84 1020.9
20230130025403 28 296 1.0 2.0 0.00 0.00 0.00 84 1021.1
20230130024503 29 296 0.0 1.0 0.00 0.00 0.00 84 1020.9
20230130023603 29 296 1.0 1.0 0.00 0.00 0.00 83 1021.0
20230130022703 29 296 0.0 1.0 0.00 0.00 0.00 83 1021.2
20230130021804 29 296 1.0 1.0 0.00 0.00 0.00 84 1021.4
20230130020903 29 296 1.0 2.0 0.00 0.00 0.00 83 1021.3
20230130020003 29 296 1.0 2.0 0.00 0.00 0.00 83 1021.3
20230130015403 29 296 1.0 2.0 0.00 0.00 0.00 83 1021.4
20230130014503 29 296 1.0 2.0 0.00 0.00 0.00 82 1021.4
20230130013603 29 296 1.0 2.0 0.00 0.00 0.00 82 1021.5
20230130012703 30 296 1.0 2.0 0.00 0.00 0.00 82 1021.6
20230130011803 30 296 1.0 1.0 0.00 0.00 0.00 83 1021.6
20230130010904 30 296 0.0 1.0 0.00 0.00 0.00 83 1021.7
20230130010004 29 296 0.0 1.0 0.00 0.00 0.00 84 1021.6
20230130005404 30 296 0.0 1.0 0.00 0.00 0.00 83 1021.6
20230130004506 30 296 0.0 1.0 0.00 0.00 0.00 83 1021.5
20230130003604 30 296 0.0 1.0 0.00 0.00 0.00 83 1021.6
20230130002913 30 296 1.0 1.0 0.00 0.00 0.00 83 1021.8
20230130001804 30 296 0.0 1.0 0.00 0.00 0.00 83 1021.8
20230130001117 30 296 1.0 1.0 0.00 0.00 0.00 82 1022.1
20230130000215 30 296 0.0 1.0 0.00 0.00 0.00 83 1022.1
20230129235404 30 296 0.0 1.0 0.00 0.00 0.00 83 1022.2
20230129234503 30 296 0.0 1.0 0.00 0.00 0.00 82 1022.3
20230129233816 30 296 0.0 1.0 0.00 0.00 0.00 82 1022.4
20230129232704 30 296 0.0 2.0 0.00 0.00 0.00 82 1022.4
20230129231803 31 296 0.0 1.0 0.00 0.00 0.00 80 1022.5
20230129231113 31 296 1.0 1.0 0.00 0.00 0.00 80 1022.5
20230129230011 31 296 1.0 1.0 0.00 0.00 0.00 79 1022.4
20230129225404 32 296 1.0 1.0 0.00 0.00 0.00 82 1022.4
20230129224504 31 297 1.0 1.0 0.00 0.00 0.00 81 1022.6
20230129223603 31 297 1.0 1.0 0.00 0.00 0.00 80 1022.6
20230129222704 31 285 1.0 2.0 0.00 0.00 0.00 80 1022.5
20230129221803 32 273 1.0 1.0 0.00 0.00 0.00 83 1022.6
20230129220904 32 265 1.0 2.0 0.00 0.00 0.00 84 1022.5
20230129220216 31 262 0.0 2.0 0.00 0.00 0.00 79 1022.6
20230129215403 32 262 0.0 1.0 0.00 0.00 0.00 82 1022.8
20230129214715 32 262 0.0 1.0 0.00 0.00 0.00 80 1022.8
20230129213604 32 262 0.0 2.0 0.00 0.00 0.00 80 1022.8
20230129212703 32 262 0.0 1.0 0.00 0.00 0.00 79 1022.9
20230129211803 32 262 1.0 1.0 0.00 0.00 0.00 79 1022.9
20230129211114 32 262 1.0 1.0 0.00 0.00 0.00 77 1023.1
20230129210004 33 262 0.0 1.0 0.00 0.00 0.00 76 1023.1
20230129205403 33 262 0.0 1.0 0.00 0.00 0.00 76 1023.1
20230129204503 33 262 0.0 1.0 0.00 0.00 0.00 76 1023.1
20230129203604 33 262 0.0 1.0 0.00 0.00 0.00 76 1023.0
20230129202704 34 262 0.0 1.0 0.00 0.00 0.00 76 1022.9
20230129201803 33 262 1.0 1.0 0.00 0.00 0.00 76 1023.1
20230129200903 34 262 0.0 1.0 0.00 0.00 0.00 75 1023.0
20230129200003 34 262 1.0 1.0 0.00 0.00 0.00 74 1022.9
20230129195404 35 262 1.0 1.0 0.00 0.00 0.00 74 1022.9
20230129194716 35 262 1.0 1.0 0.00 0.00 0.00 81 1022.9
20230129193605 35 262 0.0 1.0 0.00 0.00 0.00 74 1022.9
20230129192916 35 262 0.0 1.0 0.00 0.00 0.00 73 1022.9
20230129191804 35 262 0.0 1.0 0.00 0.00 0.00 73 1022.7
20230129190903 35 262 0.0 1.0 0.00 0.00 0.00 73 1022.8
20230129190004 34 262 0.0 1.0 0.00 0.00 0.00 74 1022.8
20230129185404 35 262 0.0 1.0 0.00 0.00 0.00 74 1022.8
20230129184504 35 262 1.0 1.0 0.00 0.00 0.00 73 1022.7
20230129183604 35 262 0.0 1.0 0.00 0.00 0.00 72 1022.9
20230129182703 36 260 0.0 1.0 0.00 0.00 0.00 71 1022.8
20230129181805 36 260 0.0 1.0 0.00 0.00 0.00 70 1022.9
20230129181116 36 260 0.0 1.0 0.00 0.00 0.00 70 1022.9
20230129180004 37 257 0.0 1.0 0.00 0.00 0.00 67 1022.8
20230129175615 38 257 0.0 1.0 0.00 0.00 0.00 67 1022.8
20230129174504 38 256 0.0 1.0 0.00 0.00 0.00 64 1022.7
20230129173603 39 249 1.0 1.0 0.00 0.00 0.00 66 1022.7
20230129172703 39 238 0.0 1.0 0.00 0.00 0.00 67 1022.6
20230129171803 39 234 0.0 1.0 0.00 0.00 0.00 63 1022.6
20230129170903 40 234 0.0 2.0 0.00 0.00 0.00 62 1022.5
20230129170003 40 234 0.0 1.0 0.00 0.00 0.00 61 1022.5
20230129165404 40 234 0.0 1.0 0.00 0.00 0.00 61 1022.5
20230129164718 40 234 0.0 2.0 0.00 0.00 0.00 61 1022.5
20230129163605 41 233 0.0 2.0 0.00 0.00 0.00 58 1022.4
20230129162703 42 228 0.0 2.0 0.00 0.00 0.00 56 1022.4
20230129162015 42 227 1.0 2.0 0.00 0.00 0.00 57 1022.3
20230129160903 42 220 1.0 4.0 0.00 0.00 0.00 57 1022.2
20230129160003 43 233 2.0 4.0 0.00 0.00 0.00 56 1022.2
20230129155404 43 208 2.0 5.0 0.00 0.00 0.00 56 1022.2
20230129154503 44 214 1.0 6.0 0.00 0.00 0.00 55 1022.1
20230129153604 44 225 1.0 4.0 0.00 0.00 0.00 53 1022.2
20230129152704 44 229 2.0 4.0 0.00 0.00 0.00 53 1022.2
20230129151803 44 254 2.0 6.0 0.00 0.00 0.00 51 1022.2
20230129150903 45 230 2.0 8.0 0.00 0.00 0.00 50 1022.1
20230129150003 45 216 2.0 4.0 0.00 0.00 0.00 49 1021.9
20230129145404 45 216 2.0 5.0 0.00 0.00 0.00 49 1021.9
20230129144503 46 178 2.0 3.0 0.00 0.00 0.00 49 1022.0
20230129143603 46 227 2.0 4.0 0.00 0.00 0.00 48 1022.1
20230129142914 46 209 2.0 5.0 0.00 0.00 0.00 48 1022.1
20230129141804 46 258 2.0 5.0 0.00 0.00 0.00 48 1022.2
20230129140906 45 281 2.0 7.0 0.00 0.00 0.00 49 1022.4
20230129140216 46 256 2.0 5.0 0.00 0.00 0.00 48 1022.6
20230129135404 45 172 3.0 6.0 0.00 0.00 0.00 50 1022.8
20230129134503 45 169 3.0 9.0 0.00 0.00 0.00 50 1022.7
20230129133605 46 220 1.0 6.0 0.00 0.00 0.00 50 1022.8
20230129132704 46 302 1.0 4.0 0.00 0.00 0.00 45 1022.9
20230129131803 45 110 2.0 3.0 0.00 0.00 0.00 45 1022.9
20230129130903 45 198 2.0 6.0 0.00 0.00 0.00 44 1023.1
20230129130006 45 283 3.0 7.0 0.00 0.00 0.00 45 1023.4
20230129125404 45 259 3.0 7.0 0.00 0.00 0.00 45 1023.5
20230129124715 45 250 2.0 7.0 0.00 0.00 0.00 45 1023.6
20230129123604 44 337 3.0 5.0 0.00 0.00 0.00 50 1023.7
20230129122915 44 306 3.0 9.0 0.00 0.00 0.00 48 1023.9
20230129122012 44 285 2.0 6.0 0.00 0.00 0.00 49 1024.0
20230129120904 44 259 3.0 4.0 0.00 0.00 0.00 47 1024.0
20230129120003 43 280 3.0 9.0 0.00 0.00 0.00 51 1024.2
20230129115614 43 267 3.0 9.0 0.00 0.00 0.00 49 1024.2
20230129114504 43 174 3.0 6.0 0.00 0.00 0.00 51 1024.2
20230129113603 43 232 3.0 7.0 0.00 0.00 0.00 52 1024.3
20230129112704 43 102 2.0 5.0 0.00 0.00 0.00 52 1024.5
20230129111804 43 294 2.0 5.0 0.00 0.00 0.00 53 1024.7
20230129110903 42 278 3.0 7.0 0.00 0.00 0.00 53 1024.9
20230129110004 43 309 3.0 6.0 0.00 0.00 0.00 54 1025.0
20230129105403 43 285 2.0 6.0 0.00 0.00 0.00 53 1025.1
20230129104503 43 256 2.0 4.0 0.00 0.00 0.00 55 1025.5